When you browse on this site, cookies collect data to enhance your experience and personalize the content and advertising you see.
Visit our Privacy Policy to learn more. By continuing to use the site, you agree to this use of cookies and data.
  • In Czech Republic
  • List of Countries
  • For 7 days
  • Water Temperature
  • Satellite Maps
  • Weather Map
  • Weather Widgets
  • user-avatar
    Login

    Hourly Weather Zorya

    Today, 21 January, Monday

    Time Temperature Precipitation Wind Pressure Humidity
    00:00 -6°C° 0 mm 3 mps 755 mmHg 90%
    01:00 -4°C° 0 mm 2 mps 754 mmHg 92%
    02:00 -4°C° 0 mm 2 mps 754 mmHg 93%
    03:00 -4°C° 0 mm 2 mps 753 mmHg 95%
    04:00 -3°C° 0 mm 2 mps 753 mmHg 96%
    05:00 -2°C° 0 mm 3 mps 752 mmHg 97%
    06:00 -1°C° 0 mm 3 mps 751 mmHg 98%
    07:00 -1°C° 0.1 mm 4 mps 751 mmHg 98%
    08:00 -1°C° 0.1 mm 4 mps 750 mmHg 98%
    09:00 0°C° 0.1 mm 5 mps 749 mmHg 97%
    10:00 -1°C° 0.3 mm 6 mps 749 mmHg 97%
    11:00 +1°C° 0.3 mm 6 mps 749 mmHg 97%
    12:00 +1°C° 0.3 mm 6 mps 748 mmHg 96%
    13:00 +1°C° 1.5 mm 6 mps 748 mmHg 97%
    14:00 0°C° 1.5 mm 5 mps 748 mmHg 97%
    15:00 0°C° 1.5 mm 4 mps 748 mmHg 98%
    16:00 0°C° 0.3 mm 4 mps 748 mmHg 96%
    17:00 -1°C° 0.3 mm 4 mps 749 mmHg 95%
    18:00 -2°C° 0.3 mm 5 mps 749 mmHg 93%
    19:00 -2°C° 0.2 mm 5 mps 749 mmHg 91%
    20:00 -4°C° 0.2 mm 6 mps 750 mmHg 89%
    21:00 -5°C° 0.2 mm 6 mps 751 mmHg 87%
    22:00 -5°C° 0.1 mm 6 mps 751 mmHg 87%
    23:00 -6°C° 0.1 mm 6 mps 752 mmHg 86%

    Tomorrow, 22 January, Tuesday

    Time Temperature Precipitation Wind Pressure Humidity
    00:00 -6°C° 0.1 mm 6 mps 753 mmHg 85%
    01:00 -8°C° 0 mm 6 mps 753 mmHg 85%
    02:00 -9°C° 0 mm 6 mps 754 mmHg 84%
    03:00 -10°C° 0 mm 5 mps 755 mmHg 84%
    04:00 -10°C° 0 mm 5 mps 755 mmHg 84%
    05:00 -11°C° 0 mm 5 mps 755 mmHg 85%
    06:00 -10°C° 0 mm 4 mps 756 mmHg 86%
    07:00 -11°C° 0 mm 4 mps 756 mmHg 86%
    08:00 -11°C° 0 mm 4 mps 757 mmHg 86%
    09:00 -11°C° 0 mm 4 mps 757 mmHg 86%
    10:00 -9°C° 0 mm 3 mps 757 mmHg 83%
    11:00 -8°C° 0 mm 3 mps 758 mmHg 79%
    12:00 -7°C° 0 mm 2 mps 758 mmHg 76%
    13:00 -6°C° 0 mm 2 mps 758 mmHg 75%
    14:00 -6°C° 0 mm 2 mps 758 mmHg 73%
    15:00 -5°C° 0 mm 2 mps 757 mmHg 71%
    16:00 -6°C° 0 mm 2 mps 757 mmHg 75%
    17:00 -6°C° 0 mm 2 mps 757 mmHg 79%
    18:00 -7°C° 0 mm 2 mps 758 mmHg 83%
    19:00 -8°C° 0 mm 3 mps 758 mmHg 84%
    20:00 -8°C° 0 mm 3 mps 757 mmHg 85%
    21:00 -9°C° 0 mm 3 mps 757 mmHg 86%
    22:00 -9°C° 0 mm 3 mps 757 mmHg 86%
    23:00 -10°C° 0 mm 4 mps 757 mmHg 85%

    Day after tomorrow, 23 January, Wednesday

    Time Temperature Precipitation Wind Pressure Humidity
    00:00 -10°C° 0 mm 4 mps 757 mmHg 85%
    01:00 -10°C° 0 mm 4 mps 757 mmHg 85%
    02:00 -10°C° 0 mm 4 mps 757 mmHg 85%
    03:00 -11°C° 0 mm 4 mps 756 mmHg 84%
    04:00 -12°C° 0 mm 5 mps 756 mmHg 85%
    05:00 -12°C° 0 mm 5 mps 756 mmHg 86%
    06:00 -12°C° 0 mm 5 mps 755 mmHg 87%
    07:00 -12°C° 0 mm 5 mps 755 mmHg 87%
    08:00 -11°C° 0 mm 6 mps 755 mmHg 87%
    09:00 -11°C° 0 mm 6 mps 755 mmHg 87%
    10:00 -10°C° 0 mm 6 mps 754 mmHg 86%
    11:00 -9°C° 0 mm 6 mps 754 mmHg 85%
    12:00 -8°C° 0 mm 6 mps 754 mmHg 84%
    13:00 -6°C° 0 mm 6 mps 753 mmHg 84%
    14:00 -6°C° 0 mm 6 mps 753 mmHg 84%
    15:00 -5°C° 0 mm 6 mps 752 mmHg 84%
    16:00 -5°C° 0.1 mm 6 mps 752 mmHg 84%
    17:00 -4°C° 0.1 mm 6 mps 751 mmHg 85%
    18:00 -4°C° 0.1 mm 6 mps 751 mmHg 86%
    19:00 -4°C° 0 mm 6 mps 750 mmHg 85%
    20:00 -3°C° 0 mm 6 mps 750 mmHg 84%
    21:00 -3°C° 0 mm 6 mps 750 mmHg 84%
    22:00 -3°C° 0.1 mm 6 mps 749 mmHg 85%
    23:00 -3°C° 0.1 mm 6 mps 749 mmHg 86%

    24 January, Thursday

    Time Temperature Precipitation Wind Pressure Humidity
    00:00 -3°C° 0.1 mm 6 mps 749 mmHg 87%
    01:00 -3°C° 0 mm 6 mps 748 mmHg 87%
    02:00 -1°C° 0 mm 5 mps 748 mmHg 88%
    03:00 -1°C° 0 mm 5 mps 748 mmHg 89%
    04:00 -1°C° 1.5 mm 5 mps 747 mmHg 91%
    05:00 0°C° 1.5 mm 5 mps 747 mmHg 94%
    06:00 0°C° 1.5 mm 5 mps 747 mmHg 96%
    07:00 0°C° 0.7 mm 5 mps 747 mmHg 97%
    08:00 +1°C° 0.7 mm 5 mps 747 mmHg 97%
    09:00 +1°C° 0.7 mm 5 mps 747 mmHg 98%
    10:00 +1°C° 0.1 mm 4 mps 747 mmHg 98%
    11:00 +1°C° 0.1 mm 4 mps 748 mmHg 99%
    12:00 +2°C° 0.1 mm 3 mps 748 mmHg 99%
    13:00 +2°C° 0 mm 3 mps 748 mmHg 99%
    14:00 +3°C° 0 mm 2 mps 748 mmHg 99%
    15:00 +3°C° 0 mm 2 mps 748 mmHg 99%
    16:00 +3°C° 0 mm 2 mps 748 mmHg 98%
    17:00 +2°C° 0 mm 2 mps 748 mmHg 97%
    18:00 +2°C° 0 mm 2 mps 749 mmHg 97%
    19:00 +1°C° 0 mm 2 mps 749 mmHg 96%
    20:00 +1°C° 0 mm 2 mps 749 mmHg 95%
    21:00 +1°C° 0 mm 2 mps 749 mmHg 95%
    22:00 0°C° 0.2 mm 3 mps 750 mmHg 95%
    23:00 0°C° 0.2 mm 3 mps 750 mmHg 94%

    25 January, Friday

    Time Temperature Precipitation Wind Pressure Humidity
    00:00 -1°C° 0.2 mm 4 mps 750 mmHg 94%
    01:00 -1°C° 0.3 mm 4 mps 750 mmHg 94%
    02:00 -1°C° 0.3 mm 5 mps 750 mmHg 93%
    03:00 -1°C° 0.3 mm 5 mps 750 mmHg 93%
    04:00 -2°C° 0 mm 5 mps 750 mmHg 92%
    05:00 -2°C° 0 mm 5 mps 750 mmHg 92%
    06:00 -4°C° 0 mm 6 mps 750 mmHg 91%
    07:00 -4°C° 0 mm 6 mps 750 mmHg 91%
    08:00 -5°C° 0 mm 6 mps 751 mmHg 90%
    09:00 -5°C° 0 mm 6 mps 751 mmHg 89%
    10:00 -5°C° 0 mm 6 mps 751 mmHg 89%
    11:00 -4°C° 0 mm 6 mps 751 mmHg 88%
    12:00 -4°C° 0 mm 6 mps 751 mmHg 88%
    13:00 -4°C° 0.1 mm 6 mps 751 mmHg 88%
    14:00 -4°C° 0.1 mm 6 mps 751 mmHg 89%
    15:00 -4°C° 0.1 mm 6 mps 751 mmHg 90%
    16:00 -4°C° 0 mm 6 mps 751 mmHg 90%
    17:00 -4°C° 0 mm 6 mps 751 mmHg 91%
    18:00 -5°C° 0 mm 6 mps 751 mmHg 91%
    19:00 -5°C° 0 mm 6 mps 750 mmHg 91%
    20:00 -5°C° 0 mm 6 mps 750 mmHg 91%
    21:00 -5°C° 0 mm 6 mps 750 mmHg 91%
    22:00 -4°C° 0 mm 6 mps 750 mmHg 92%
    23:00 -4°C° 0 mm 5 mps 750 mmHg 92%

    26 January, Saturday

    Time Temperature Precipitation Wind Pressure Humidity
    00:00 -4°C° 0 mm 5 mps 750 mmHg 92%
    01:00 -4°C° 0.1 mm 5 mps 750 mmHg 93%
    02:00 -4°C° 0.1 mm 5 mps 749 mmHg 93%
    03:00 -2°C° 0.1 mm 5 mps 749 mmHg 93%
    04:00 -2°C° 0.1 mm 5 mps 749 mmHg 94%
    05:00 -4°C° 0.1 mm 5 mps 749 mmHg 94%
    06:00 -4°C° 0.1 mm 5 mps 748 mmHg 94%
    07:00 -4°C° 0.1 mm 5 mps 748 mmHg 94%
    08:00 -3°C° 0.1 mm 4 mps 748 mmHg 94%
    09:00 -3°C° 0.1 mm 4 mps 748 mmHg 94%
    10:00 -2°C° 0 mm 4 mps 748 mmHg 94%
    11:00 -2°C° 0 mm 4 mps 748 mmHg 94%
    12:00 -2°C° 0 mm 4 mps 748 mmHg 94%
    13:00 -2°C° 0 mm 4 mps 748 mmHg 94%
    14:00 -2°C° 0 mm 4 mps 748 mmHg 94%
    15:00 -2°C° 0 mm 4 mps 747 mmHg 94%
    16:00 -2°C° 0 mm 4 mps 747 mmHg 94%
    17:00 -2°C° 0 mm 4 mps 748 mmHg 95%
    18:00 -2°C° 0 mm 4 mps 748 mmHg 95%
    19:00 -2°C° 0 mm 4 mps 747 mmHg 95%
    20:00 -2°C° 0 mm 4 mps 747 mmHg 96%
    21:00 -2°C° 0 mm 4 mps 747 mmHg 96%
    22:00 -2°C° 0 mm 4 mps 747 mmHg 96%
    23:00 -1°C° 0.1 mm 3 mps 747 mmHg 97%
    Show more